Location: Omaha
(41.2590°N, 95.9380°W)
Time: 00:46:39
(UTC-06:00)

Envisat - Visible Passes

Search period start: 17 January 2018 00:00
Search period end: 27 January 2018 00:00
Orbit: 764 x 766 km, 98.2° (Epoch: 16 January)

Date Brightness Start Highest point End Pass type
(mag) Time Alt. Az. Time Alt. Az. Time Alt. Az.
17 Jan 4.8 19:40:44 19° N 19:40:44 19° N 19:42:13 10° N visible
18 Jan 4.6 19:03:22 17° NNE 19:03:22 17° NNE 19:04:55 10° NNE visible
18 Jan 5.5 20:43:33 14° NNW 20:43:33 14° NNW 20:44:22 10° NNW visible
19 Jan 4.9 18:25:58 11° NE 18:25:58 11° NE 18:26:31 10° NE visible
19 Jan 4.8 20:06:10 22° NNW 20:06:10 22° NNW 20:07:55 10° NNW visible
20 Jan 4.3 19:28:45 24° NNE 19:28:45 24° NNE 19:31:00 10° N visible
20 Jan 5.8 21:08:57 12° NW 21:08:57 12° NW 21:09:19 10° NW visible
21 Jan 4.5 18:51:21 18° NE 18:51:21 18° NE 18:53:29 10° NNE visible
21 Jan 5.0 20:31:32 22° NNW 20:31:32 22° NNW 20:33:23 10° NNW visible
22 Jan 4.1 19:54:08 31° N 19:54:08 31° N 19:56:47 10° N visible
23 Jan 4.0 19:16:43 28° NE 19:16:43 28° NE 19:19:42 10° N visible
23 Jan 5.4 20:56:53 18° NW 20:56:53 18° NW 20:58:31 10° NW visible
24 Jan 4.5 18:39:16 16° NE 18:39:16 16° NE 18:41:56 10° NNE visible
24 Jan 4.3 20:19:28 33° NNW 20:19:28 33° NNW 20:22:20 10° NNW visible
25 Jan 3.5 19:42:01 43° NNE 19:42:01 43° NNE 19:45:36 10° N visible
25 Jan 5.8 21:22:12 13° WNW 21:22:12 13° WNW 21:23:05 10° NW visible
26 Jan 3.9 19:04:35 27° ENE 19:04:35 27° ENE 19:08:22 10° N visible
26 Jan 4.8 20:44:46 27° WNW 20:44:46 27° WNW 20:47:37 10° NNW visible
